{"data":{"norad_id":46786,"epoch":"2026-05-24T13:54:56.918016Z","epoch_age_seconds":121555,"freshness":"FRESH","line1":"1 46786U 20074AZ  26144.57982544  .00027538  00000+0  29988-3 0  9998","line2":"2 46786  53.0447 256.5685 0003150 299.6149  60.4550 15.63232627309304","mean_motion":15.63232627,"eccentricity":0.000315,"inclination_deg":53.0447,"raan_deg":256.5685,"arg_perigee_deg":299.6149,"mean_anomaly_deg":60.455,"bstar":0.00029988,"rev_number":30930,"period_min":92.116808153084,"perigee_km":376.19820072833,"apogee_km":380.45477272497,"semimajor_km":6756.4634867267,"source":"CELESTRAK","updated_at":"2026-05-25T13:38:16.520060Z"}}